User: anonymous   Login
Location: Melara
(45.0500°N, 11.1833°E)
Time: 01:35:14
(UTC+00:00)
Language:

BREEZE-M DEB (TANK) - Orbit

View from above orbital plane
View from above orbital plane
View from above satellite
View from above satellite

Ground track
Ground track

The orbit data is extracted from the following two-line orbital elements,

1 38089U 12007C   22224.74187881  .00001340  00000-0  36852-3 0  9999
2 38089  49.5579 135.0586 5014844 180.3967 179.0973  5.56142237209953
Epoch (UTC): 12 August 2022 17:48:18
Eccentricity: 0.5014844
inclination: 49.5579°
perigee height: 330 km
apogee height: 13827 km
right ascension of ascending node: 135.0586°
argument of perigee: 180.3967°
revolutions per day: 5.56142237
mean anomaly at epoch: 179.0973°
orbit number at epoch: 20995

The dashed part of the orbit path shows where the satellite is in the earth's shadow,  

DLR